McCook, NE

10:41 PM CDT on May 28, 2017 (GMT -0500)
McCook Municipal

Weather History for KMCK - July, 2013

Change the Weather History Date:

Friday, July 19, 2013

  Actual Average Record
Temperature  
Mean Temperature 82 °F 76 °F  
Max Temperature 95 °F 90 °F 112 °F (1934)
Min Temperature 68 °F 62 °F 52 °F (1911)
Cooling Degree Days 17    
Growing Degree Days 32 (Base 50)    
Moisture  
Dew Point 63 °F    
Average Humidity 55    
Maximum Humidity 78    
Minimum Humidity 32    
Precipitation  
Precipitation 0.00 in 0.09 in 4.00 in (1973)
Month to date precipitation 1.31 2.00  
Year to date precipitation 7.30 13.32  
Sea Level Pressure  
Sea Level Pressure 29.93 in    
Wind  
Wind Speed 11 mph (East)    
Max Wind Speed 26 mph    
Max Gust Speed 31 mph    
Visibility 10 miles    
Events Thunderstorm    
T = Trace of Precipitation, MM = Missing Value Source: NWS Daily Summary

Daily Weather History Graph

Daily Weather History Graph

Search for Another Location

Airport or City:

Trip Planner

Search our weather history database for the weather conditions in past years. The results will help you decide how hot, cold, wet, or windy it might be!

Date:

Astronomy

Jul. 19, 2013 Rise Set
Actual Time 6:28 AM CDT 9:07 PM CDT
Civil Twilight 5:57 AM CDT 9:39 PM CDT
Nautical Twilight 5:17 AM CDT 10:18 PM CDT
Astronomical Twilight 4:33 AM CDT 11:03 PM CDT
Moon 6:12 PM CDT (7/19) 3:11 AM CDT (7/19)
Length of Visible Light 15h 42m
Length of Day
14h 38m
Waxing Gibbous, 87% of the Moon is Illuminated
Jul 19
Waxing Gibbous
Jul 22
Full
Jul 29
Last Quarter
Aug 6
New
Aug 14
First Quarter

Hourly Weather History & Observations

Time (CDT) Temp. Heat Index Dew Point Humidity Pressure Visibility Wind Dir Wind Speed Gust Speed Precip Events Conditions
12:53 AM 78.1 °F - 60.1 °F 54% 29.91 in 10.0 mi South 11.5 mph - N/A   Clear
1:53 AM 77.0 °F - 60.1 °F 56% 29.91 in 10.0 mi South 9.2 mph - N/A   Clear
2:53 AM 75.0 °F - 61.0 °F 62% 29.90 in 10.0 mi SSW 8.1 mph - N/A   Clear
3:53 AM 73.0 °F - 61.0 °F 66% 29.90 in 10.0 mi South 10.4 mph - N/A   Clear
4:53 AM 72.0 °F - 62.1 °F 71% 29.89 in 10.0 mi SSW 6.9 mph - N/A   Clear
5:53 AM 70.0 °F - 62.1 °F 76% 29.90 in 10.0 mi WSW 4.6 mph - N/A   Clear
6:53 AM 69.1 °F - 62.1 °F 78% 29.90 in 10.0 mi Calm Calm - N/A   Clear
7:53 AM 72.0 °F - 63.0 °F 73% 29.89 in 10.0 mi Calm Calm - N/A   Clear
8:53 AM 75.0 °F - 63.0 °F 66% 29.92 in 10.0 mi WSW 4.6 mph - N/A   Clear
9:53 AM 82.9 °F 84.0 °F 63.0 °F 51% 29.93 in 10.0 mi NE 8.1 mph - N/A   Clear
10:53 AM 88.0 °F 88.7 °F 63.0 °F 43% 29.93 in 10.0 mi ENE 15.0 mph - N/A   Clear
11:53 AM 91.0 °F 91.9 °F 63.0 °F 39% 29.93 in 10.0 mi ENE 12.7 mph - N/A   Partly Cloudy
12:53 PM 93.0 °F 94.6 °F 64.0 °F 38% 29.92 in 10.0 mi East 12.7 mph - N/A   Partly Cloudy
1:53 PM 93.0 °F 93.8 °F 62.1 °F 36% 29.91 in 10.0 mi East 13.8 mph 20.7 mph N/A   Partly Cloudy
2:53 PM 95.0 °F 95.2 °F 61.0 °F 32% 29.90 in 10.0 mi ENE 11.5 mph 19.6 mph N/A Thunderstorm Partly Cloudy
3:07 PM 89.6 °F 90.1 °F 62.6 °F 40% 29.99 in 10.0 mi NE 18.4 mph 25.3 mph N/A   Mostly Cloudy
3:46 PM 86.0 °F 88.2 °F 66.2 °F 51% 29.98 in 10.0 mi NE 26.5 mph 31.1 mph N/A Thunderstorm Clear
3:53 PM 84.9 °F 87.1 °F 66.0 °F 53% 29.90 in 10.0 mi NE 21.9 mph 31.1 mph N/A Thunderstorm Clear
4:17 PM 84.2 °F 85.0 °F 62.6 °F 48% 29.98 in 10.0 mi ENE 20.7 mph 26.5 mph N/A   Clear
4:53 PM 84.9 °F 87.1 °F 66.0 °F 53% 29.91 in 10.0 mi ENE 17.3 mph - N/A   Clear
5:04 PM 84.2 °F 85.6 °F 64.4 °F 51% 30.00 in 10.0 mi ENE 17.3 mph - N/A Thunderstorm Partly Cloudy
5:19 PM 86.0 °F 87.3 °F 64.4 °F 48% 30.00 in 10.0 mi ENE 15.0 mph 20.7 mph N/A   Partly Cloudy
5:53 PM 87.1 °F 87.5 °F 62.1 °F 43% 29.89 in 10.0 mi ENE 17.3 mph - N/A   Clear
6:53 PM 84.9 °F 86.1 °F 64.0 °F 49% 29.91 in 10.0 mi NE 15.0 mph - N/A   Clear
7:53 PM 82.9 °F 82.6 °F 57.9 °F 42% 29.91 in 10.0 mi NE 10.4 mph - N/A   Mostly Cloudy
8:53 PM 81.0 °F 80.8 °F 55.9 °F 42% 29.93 in 10.0 mi SSW 4.6 mph - N/A   Mostly Cloudy
9:53 PM 77.0 °F - 61.0 °F 58% 29.93 in 10.0 mi Variable 5.8 mph - N/A   Clear
10:53 PM 73.9 °F - 64.0 °F 71% 29.94 in 10.0 mi SW 11.5 mph - N/A   Mostly Cloudy
11:07 PM 73.4 °F - 62.6 °F 69% 30.03 in 10.0 mi SSW 8.1 mph - N/A Thunderstorm Mostly Cloudy
11:28 PM 73.4 °F - 64.4 °F 73% 30.01 in 10.0 mi SW 5.8 mph - N/A   Partly Cloudy
11:53 PM 73.0 °F - 64.0 °F 73% 29.93 in 10.0 mi WNW 3.5 mph - N/A   Clear